| time (UTC) | temp F | wind direction | speed MPH | gust MPH | rain 1hr in | rain 24hr in | rain mn in | humidity % | barometer mb |
| 20260902185032 | 58 | 92 | 6.0 | 8.0 | 0.12 | 0.15 | 0.15 | 95 | |
| 20260902184021 | 58 | 110 | 6.0 | 8.0 | 0.11 | 0.14 | 0.14 | 94 | |
| 20260902183029 | 59 | 123 | 6.0 | 8.0 | 0.08 | 0.10 | 0.10 | 94 | |
| 20260902182037 | 59 | 123 | 5.0 | 9.0 | 0.05 | 0.07 | 0.07 | 92 | |
| 20260902181026 | 59 | 104 | 5.0 | 8.0 | 0.04 | 0.05 | 0.05 | 91 | |
| 20260902180034 | 59 | 123 | 5.0 | 8.0 | 0.03 | 0.03 | 0.03 | 90 | |
| 20260902175024 | 59 | 120 | 5.0 | 8.0 | 0.03 | 0.03 | 0.03 | 91 | |
| 20260902174031 | 59 | 118 | 6.0 | 8.0 | 0.03 | 0.03 | 0.03 | 91 | |
| 20260902173021 | 59 | 144 | 5.0 | 9.0 | 0.02 | 0.02 | 0.02 | 90 | |
| 20260902172028 | 59 | 157 | 7.0 | 10.0 | 0.02 | 0.02 | 0.02 | 89 | |
| 20260902171057 | 59 | 155 | 7.0 | 9.0 | 0.01 | 0.01 | 0.01 | 88 | |
| 20260902170026 | 60 | 165 | 6.0 | 13.0 | 0.00 | 0.00 | 0.00 | 85 | |
| 20260902165033 | 61 | 147 | 7.0 | 11.0 | 0.00 | 0.00 | 0.00 | 83 | |
| 20260902164023 | 62 | 164 | 6.0 | 9.0 | 0.00 | 0.00 | 0.00 | 80 | |
| 20260902163033 | 63 | 197 | 5.0 | 6.0 | 0.00 | 0.00 | 0.00 | 77 | |
| 20260902162020 | 63 | 172 | 4.0 | 6.0 | 0.00 | 0.00 | 0.00 | 74 | |
| 20260902161029 | 63 | 165 | 5.0 | 8.0 | 0.00 | 0.00 | 0.00 | 74 | |
| 20260902160036 | 63 | 142 | 4.0 | 7.0 | 0.00 | 0.00 | 0.00 | 73 | |
| 20260902155026 | 63 | 130 | 4.0 | 6.0 | 0.00 | 0.00 | 0.00 | 73 | |
| 20260902154034 | 62 | 153 | 4.0 | 6.0 | 0.00 | 0.00 | 0.00 | 75 | |
| 20260902153023 | 62 | 128 | 5.0 | 8.0 | 0.00 | 0.00 | 0.00 | 76 | |
| 20260902152031 | 62 | 127 | 3.0 | 7.0 | 0.00 | 0.00 | 0.00 | 78 | |
| 20260902151020 | 61 | 154 | 5.0 | 7.0 | 0.00 | 0.00 | 0.00 | 78 | |
| 20260902150028 | 61 | 137 | 4.0 | 5.0 | 0.00 | 0.00 | 0.00 | 80 | |
| 20260902145036 | 61 | 105 | 2.0 | 3.0 | 0.00 | 0.00 | 0.00 | 80 | |
| 20260902144025 | 61 | 119 | 4.0 | 6.0 | 0.00 | 0.00 | 0.00 | 80 | |
| 20260902143033 | 60 | 131 | 3.0 | 4.0 | 0.00 | 0.00 | 0.00 | 81 | |
| 20260902142022 | 60 | 107 | 3.0 | 5.0 | 0.00 | 0.00 | 0.00 | 81 | |
| 20260902141033 | 60 | 99 | 4.0 | 6.0 | 0.00 | 0.00 | 0.00 | 82 | |
| 20260902140019 | 60 | 96 | 4.0 | 6.0 | 0.00 | 0.00 | 0.00 | 82 | |
| 20260902135027 | 60 | 98 | 2.0 | 4.0 | 0.00 | 0.00 | 0.00 | 82 | |
| 20260902134036 | 60 | 120 | 3.0 | 4.0 | 0.00 | 0.00 | 0.00 | 82 | |
| 20260902133025 | 60 | 113 | 2.0 | 4.0 | 0.00 | 0.00 | 0.00 | 81 | |
| 20260902132053 | 60 | 110 | 2.0 | 4.0 | 0.00 | 0.00 | 0.00 | 81 | |
| 20260902131024 | 60 | 105 | 4.0 | 5.0 | 0.00 | 0.00 | 0.00 | 80 | |
| 20260902130033 | 60 | 89 | 4.0 | 7.0 | 0.00 | 0.00 | 0.00 | 80 | |
| 20260902125019 | 61 | 82 | 4.0 | 7.0 | 0.00 | 0.00 | 0.00 | 79 | |
| 20260902124027 | 61 | 100 | 4.0 | 6.0 | 0.00 | 0.00 | 0.00 | 79 | |
| 20260902123035 | 61 | 96 | 3.0 | 4.0 | 0.00 | 0.00 | 0.00 | 79 | |
| 20260902122024 | 61 | 113 | 2.0 | 3.0 | 0.00 | 0.00 | 0.00 | 79 | |
| 20260902121032 | 61 | 122 | 3.0 | 5.0 | 0.00 | 0.00 | 0.00 | 79 | |
| 20260902120024 | 61 | 89 | 4.0 | 5.0 | 0.00 | 0.00 | 0.00 | 79 | |
| 20260902115033 | 61 | 90 | 3.0 | 4.0 | 0.00 | 0.00 | 0.00 | 79 | |
| 20260902114019 | 61 | 117 | 4.0 | 7.0 | 0.00 | 0.00 | 0.00 | 79 | |
| 20260902113027 | 61 | 108 | 4.0 | 6.0 | 0.00 | 0.00 | 0.00 | 79 | |
| 20260902112035 | 60 | 103 | 4.0 | 9.0 | 0.00 | 0.00 | 0.00 | 80 | |
| 20260902111024 | 60 | 108 | 4.0 | 7.0 | 0.00 | 0.00 | 0.00 | 80 | |
| 20260902110033 | 60 | 121 | 6.0 | 9.0 | 0.00 | 0.00 | 0.00 | 81 | |
| 20260902105024 | 60 | 109 | 4.0 | 7.0 | 0.00 | 0.00 | 0.00 | 82 | |
| 20260902104030 | 60 | 123 | 5.0 | 8.0 | 0.00 | 0.00 | 0.00 | 82 | |
| 20260902103019 | 59 | 133 | 4.0 | 6.0 | 0.00 | 0.00 | 0.00 | 83 | |
| 20260902102027 | 59 | 134 | 5.0 | 7.0 | 0.00 | 0.00 | 0.00 | 83 | |
| 20260902101035 | 59 | 151 | 3.0 | 5.0 | 0.00 | 0.00 | 0.00 | 83 | |
| 20260902100024 | 59 | 133 | 3.0 | 4.0 | 0.00 | 0.00 | 0.00 | 83 | |
| 20260902095033 | 59 | 139 | 4.0 | 6.0 | 0.00 | 0.00 | 0.00 | 83 | |
| 20260902094022 | 59 | 111 | 3.0 | 5.0 | 0.00 | 0.00 | 0.00 | 82 | |
| 20260902093048 | 59 | 113 | 4.0 | 5.0 | 0.00 | 0.00 | 0.00 | 81 | |
| 20260902092019 | 60 | 109 | 3.0 | 5.0 | 0.00 | 0.00 | 0.00 | 79 | |
| 20260902091027 | 60 | 88 | 4.0 | 6.0 | 0.00 | 0.00 | 0.00 | 78 | |
| 20260902090035 | 60 | 123 | 4.0 | 6.0 | 0.00 | 0.00 | 0.00 | 78 | |
| 20260902085045 | 60 | 139 | 5.0 | 6.0 | 0.00 | 0.00 | 0.00 | 79 | |
| 20260902084032 | 60 | 120 | 4.0 | 7.0 | 0.00 | 0.00 | 0.00 | 80 | |
| 20260902083041 | 60 | 151 | 4.0 | 6.0 | 0.00 | 0.00 | 0.00 | 80 | |
| 20260902082050 | 60 | 176 | 2.0 | 3.0 | 0.00 | 0.00 | 0.00 | 81 | |
| 20260902081019 | 59 | 167 | 2.0 | 4.0 | 0.00 | 0.00 | 0.00 | 82 | |
| 20260902080047 | 59 | 163 | 2.0 | 3.0 | 0.00 | 0.00 | 0.00 | 82 | |
| 20260902075035 | 59 | 165 | 2.0 | 4.0 | 0.00 | 0.00 | 0.00 | 82 | |
| 20260902074027 | 59 | 136 | 3.0 | 6.0 | 0.00 | 0.00 | 0.00 | 83 | |
| 20260902073052 | 60 | 140 | 4.0 | 6.0 | 0.00 | 0.00 | 0.00 | 83 | |
| 20260902072027 | 60 | 131 | 4.0 | 7.0 | 0.00 | 0.00 | 0.00 | 83 | |
| 20260902071049 | 60 | 140 | 3.0 | 4.0 | 0.00 | 0.00 | 0.00 | 83 | |
| 20260902070019 | 60 | 133 | 3.0 | 5.0 | 0.00 | 0.00 | 0.00 | 82 | |
| 20260902065027 | 61 | 128 | 5.0 | 6.0 | 0.00 | 0.00 | 0.00 | 82 | |
| 20260902064034 | 61 | 139 | 5.0 | 7.0 | 0.00 | 0.00 | 0.00 | 81 | |
| 20260902063024 | 62 | 155 | 6.0 | 8.0 | 0.00 | 0.00 | 0.00 | 80 | |
| 20260902062052 | 62 | 163 | 6.0 | 10.0 | 0.00 | 0.00 | 0.00 | 79 | |
| 20260902061022 | 62 | 133 | 5.0 | 8.0 | 0.00 | 0.00 | 0.00 | 79 | |
| 20260902060030 | 62 | 142 | 6.0 | 10.0 | 0.00 | 0.00 | 0.00 | 79 | |
| 20260902055037 | 62 | 129 | 6.0 | 7.0 | 0.00 | 0.00 | 0.00 | 79 | |
| 20260902054027 | 62 | 129 | 5.0 | 7.0 | 0.00 | 0.00 | 0.00 | 79 | |
| 20260902053035 | 62 | 110 | 4.0 | 5.0 | 0.00 | 0.00 | 0.00 | 78 | |
| 20260902052024 | 62 | 140 | 4.0 | 7.0 | 0.00 | 0.00 | 0.00 | 78 | |
| 20260902051033 | 62 | 124 | 3.0 | 5.0 | 0.00 | 0.00 | 0.00 | 77 |